Location: Avebury
(53.1487°N, 106.9774°W)
Time: 14:37:24
(UTC+00:00)

Envisat - Pass Details

Date: 19 January 2022
Orbit: 764 x 765 km, 98.2° (Epoch: 22 May)

Event Time Altitude Azimuth Distance (km) Brightness Sun altitude
Rises 13:35:34 0° 8° (N) 3,245 6.2 -13.6°
Reaches altitude 10° 13:38:11 10° 357° (N) 2,314 5.3 -13.3°
Maximum altitude 13:42:22 27° 301° (WNW) 1,459 3.9 -12.7°
Drops below altitude 10° 13:46:33 10° 246° (WSW) 2,302 5.0 -12.1°
Sets 13:49:08 0° 234° (SW) 3,225 5.9 -11.7°
